Regional Weather Roundup
Issued by NWS

Home | Current Version | Previous Version | Graphics & Text | Print | Product List | Glossary On
Versions: 1 2 3 4 5 6 7 8 9 10 11 12 13 14 15 16 17 18 19 20 21 22 23 24 25 26 27 28 29 30 31 32 33 34 35 36 37 38 39 40 41 42 43 44 45 46 47 48 49 50
978
ASUS43 KMPX 090210
RWRMN
WEATHER ROUNDUP FOR MINNESOTA
NATIONAL WEATHER SERVICE TWIN CITIES/CHANHASSEN MN
800 PM CST THU DEC 08 2016


NOTE: "FAIR" INDICATES FEW OR NO CLOUDS BELOW 12,000 FEET WITH NO
SIGNIFICANT WEATHER AND/OR OBSTRUCTIONS TO VISIBILITY. N/A MEANS
CURRENT SKY AND/OR WEATHER CONDITIONS ARE NOT AVAILABLE.

MNZ060>063-068>070-090300-
   Twin Cities Metro

CITY           SKY/WX    TMP DP  RH WIND       PRES   REMARKS
TWIN CITIES    FLURRIES  21  11  65 NW8       30.48R WCI  11
ST PAUL        CLOUDY    21  12  68 NW14      30.49R WCI   8
CRYSTAL        CLOUDY    20  10  65 NW10      30.47S WCI   9
BLAINE         FLURRIES  21  14  73 W14       30.46R WCI   8
LAKEVILLE      FLURRIES  18  12  79 NW10      30.48R WCI   6
EDEN PRAIRIE   CLOUDY    21  11  65 W8        30.47S WCI  11
SOUTH ST PAUL  FLURRIES  22  12  66 W8        30.47S WCI  13
LAKE ELMO      FLURRIES  21  14  73 W9        30.46S WCI  11
$$
MNZ001>005-007-008-013>017-022>024-027-028-090300-
   Northwest Minnesota

CITY           SKY/WX    TMP DP  RH WIND       PRES   REMARKS
BEMIDJI        FLURRIES  12   9  87 W9        30.46S WCI   0
HALLOCK        CLOUDY     7   3  85 N8        30.57F WCI  -6
ROSEAU         CLEAR      5   0  78 NW10      30.52R WCI -10
WARROAD        FLURRIES   9   5  85 NW12      30.50S WCI  -6
THIEF RVR FALL PTCLDY     7   3  84 NW14      30.54R WCI -10
CROOKSTON      PTCLDY     9   3  78 N13       30.58S WCI  -7
FOSSTON        LGT SNOW   9   7  92 NW9       30.51S WCI  -5
DETROIT LAKES  LGT SNOW  12  10  92 NW8       30.52S WCI   1
MOORHEAD       MIX PCPN   7   1  78 NW14      30.59R WCI -10
PARK RAPIDS    CLOUDY     8   2  76 NW8       30.46S WCI  -4
$$
MNZ006-009>011-018-025>026-090300-
   North Central Minnesota

CITY           SKY/WX    TMP DP  RH WIND       PRES   REMARKS
BAUDETTE       FLURRIES  14   9  80 NW14      30.45S WCI  -1
FLAG ISLAND    CLOUDY    10   7  85 NW18      30.47S WCI  -8
INTL FALLS     LGT SNOW  13   6  74 NW10      30.43R WCI   0
WASKISH        FLURRIES  14  10  85 NW10      30.46S WCI   1
BIG FORK       FLURRIES  14  10  85 NW3       30.43S
LONGVILLE      FLURRIES  16  10  79 NW7       30.45S WCI   6
GRAND RAPIDS   FLURRIES  15  10  80 N13G23    30.45R WCI   1
CRANE LAKE     LGT SNOW  14  10  85 NW9       30.42R WCI   2
ORR            CLOUDY    12   7  79 NW8       30.37S WCI   1
COOK           CLOUDY    14  10  85 NW8       30.39S WCI   3
$$
MNZ012-019>021-037-090300-
   Northeast Minnesota

CITY           SKY/WX    TMP DP  RH WIND       PRES   REMARKS
DULUTH         FLURRIES  18  11  74 NW16G22   30.36R WCI   3
ELY            CLEAR     12   9  85 NW7       30.35F WCI   2
HIBBING        FLURRIES  14   8  77 NW14      30.40R WCI  -1
EVELETH        MOCLDY    17  11  75 NW12      30.39R WCI   5
DULUTH HARBOR  CLOUDY    23  10  58 NW16G22   30.43R WCI  10
TWO HARBORS    CLOUDY    21  14  73 NW5       30.36R WCI  15
SILVER BAY     PTCLDY    18  10  73 NW5       30.35R WCI  11
GRAND MARAIS     N/A     19   8  62 CALM      30.37R
G MARAIS ARPRT FLURRIES  10   3  72 NW16G22   30.27R WCI  -7
$$
MNZ029>031-032-039>041-046>048-054>057-064-090300-
   West Central Minnesota

CITY           SKY/WX    TMP DP  RH WIND       PRES   REMARKS
FERGUS FALLS   LGT SNOW   7   3  85 NW15      30.61S WCI -11
WHEATON        CLEAR      9   3  78 W12       30.62R WCI  -6
MORRIS         LGT SNOW   9   3  78 NW16      30.56R WCI  -9
ALEXANDRIA     CLOUDY    12   9  87 NW13      30.50S WCI  -3
ELBOW LAKE     FLURRIES   8   5  88 NW16      30.56R WCI -10
WADENA         FLURRIES   9   7  92 W7        30.48F WCI  -3
GLENWOOD       FLURRIES  10   9  92 W14       30.51S WCI  -5
APPLETON       MOCLDY    10   5  79 NW14      30.59R WCI  -5
BENSON         CLOUDY     9   5  85 N14       30.56R WCI  -8
ORTONVILLE     CLEAR      7   1  78 NW16G23   30.59R WCI -11
MADISON        CLEAR     12   7  79 NW10      30.60R WCI  -1
WILLMAR        FLURRIES  12  10  92 NW15      30.54S WCI  -4
$$
MNZ033>034-036-042>043-049>051-058-059-090300-
   Central Minnesota

CITY           SKY/WX    TMP DP  RH WIND       PRES   REMARKS
ST CLOUD       PTCLDY    15  10  80 NW12      30.48S WCI   2
PAYNESVILLE    FLURRIES  12  10  93 W10       30.51S WCI  -1
AITKIN         CLEAR     18   9  68 NW6       30.43S WCI   9
PINE RIVER     CLEAR     14  10  85 W3        30.48S
BRAINERD       PTCLDY    16  11  80 NW8       30.46S WCI   5
STAPLES        PTCLDY     9   7  92 W9        30.48S WCI  -5
LONG PRAIRIE   FAIR      12   9  85 W8        30.49S WCI   1
LITTLE FALLS   CLEAR     14   9  79 NW8       30.49R WCI   3
LITCHFIELD     PTCLDY    14  10  85 NW9G16    30.52R WCI   2
BUFFALO        CLOUDY    18  11  71 NW8       30.50S WCI   8
MAPLE LAKE     CLOUDY    19  13  77 NW12      30.50S WCI   6
HUTCHINSON     CLOUDY    16  11  82 W10       30.52R WCI   3
$$
MNZ037-044-045-052-053-090300-
   East Central Minnesota

CITY           SKY/WX    TMP DP  RH WIND       PRES   REMARKS
PRINCETON      CLOUDY    18  12  79 W12G18    30.47R WCI   5
MORA           PTCLDY    19  12  73 W6        30.45S WCI  11
CAMBRIDGE      MOCLDY    21  12  68 W7        30.44S WCI  13
RUSH CITY      CLEAR     18  12  79 W5        30.45R WCI  11
MOOSE LAKE     CLEAR     18  10  73 NW6       30.41R WCI   9
HINCKLEY       FAIR      19  14  79 NW5       30.43S WCI  13
CLOQUET        CLOUDY    18   9  68 NW13G18   30.38S WCI   4
MCGREGOR       CLEAR     18  12  79 NW12G18   30.43S WCI   5
$$
MNZ071>073-080-081-089-090-097-098-090300-
   Southwest Minnesota

CITY           SKY/WX    TMP DP  RH WIND       PRES   REMARKS
MONTEVIDEO     FLURRIES  10   7  85 N9        30.59S WCI  -2
GRANITE FALLS  CLEAR     12   8  83 W10       30.60R WCI  -1
CANBY          CLEAR     11   6  82 NW10      30.60R WCI  -3
MARSHALL       CLEAR     10   6  84 NW13      30.58R WCI  -5
REDWOOD FALLS  CLOUDY    13   6  74 NW9       30.56R WCI   1
OLIVIA         LGT SNOW  16  10  79 NW15G21   30.53F WCI   1
PIPESTONE      CLEAR     10   7  85 NW14      30.54S WCI  -5
WINDOM         FLURRIES  14   9  79 NW16G25   30.53R WCI  -2
WORTHINGTON    CLEAR     10   6  84 NW16      30.54R WCI  -7
JACKSON        MOCLDY    14   9  79 NW14G23   30.53R WCI  -1
TRACY          MOCLDY    13   9  82 NW14      30.56R WCI  -2
SLAYTON        CLEAR     10   6  85 W15       30.54R WCI  -6
$$
MNZ065>067-074>077-082>085-091>093-090300-
   South Central Minnesota

CITY           SKY/WX    TMP DP  RH WIND       PRES   REMARKS
MANKATO        FLURRIES  15  10  80 NW16      30.52S WCI  -1
NEW ULM        FLURRIES  12   9  85 NW15      30.54S WCI  -4
ST JAMES       MOCLDY    12   9  85 NW14G21   30.56R WCI  -3
FAIRMONT       FLURRIES  15   9  76 NW18G30   30.54S WCI  -2
GLENCOE        FLURRIES  18  14  84 W10       30.50S WCI   6
FARIBAULT      FLURRIES  18  12  79 W9        30.49R WCI   6
OWATONNA       FLURRIES  18  12  79 W15       30.47S WCI   3
WASECA         FLURRIES  18  12  79 W14       30.51R WCI   4
ALBERT LEA     FLURRIES  19  12  73 NW10G17   30.48S WCI   8
$$
MNZ078>079-086>088-094>096-090300-
   Southeast Minnesota

CITY           SKY/WX    TMP DP  RH WIND       PRES   REMARKS
ROCHESTER      FLURRIES  18  14  84 NW15      30.43R WCI   4
RED WING       FLURRIES  23  12  63 NW8       30.45S WCI  14
STANTON        CLOUDY    21  17  84 W9        30.47R WCI  10
DODGE CENTER   FLURRIES  18  12  79 NW9       30.45R WCI   6
WINONA         CLOUDY    23  18  80 NW9       30.45R WCI  13
AUSTIN         FLURRIES  16  10  79 NW15      30.46S WCI   1
PRESTON        LGT SNOW  18  14  84 NW13      30.43S WCI   4
$$
ABBREVIATIONS USED IN REMARKS
   TC - TEMPERATURES IN CELSIUS
  WCI - WIND CHILL INDEX
   HX - HEAT INDEX
  VSB - VISIBILITY
$$




USA.gov is the U.S. government's official web portal to all federal, state and local government web resources and services.